Home   Weather   Burgdorf   Past weeks

Flag for Germany Past Weather in Burgdorf, Lower Saxony, Germany — Yesterday and Last 2 Weeks

Now
50 °F

Cool.


Feels Like: 50 °F
Forecast: 50 / 61 °F
Wind: No wind

Location: Celle Airport

Current Time: Oct 2, 2016 at 12:33:02 AM

Latest Report: Oct 1, 2016 at 11:20 PM


Visibility: 0 mi

Pressure: 29.77 "Hg

Humidity: 100%

Dew Point: 50 °F

Location of BurgdorfLocation

Past Weather in Burgdorf — Graph

°F

Burgdorf Temperature Yesterday

Maximum temperature yesterday: 55 °F (at 1:20 PM)
Minimum temperature yesterday: 46 °F (at 12:20 AM)
Average temperature yesterday: 52 °F

High & Low Weather Summary for the Past Weeks

 TemperatureHumidityPressure
High75 °F (Sep 25, 3:20 PM)100% (Sep 17, 6:20 AM)30.30 "Hg (Sep 17, 6:20 AM)
Low43 °F (Sep 24, 6:20 AM)36% (Sep 25, 4:20 PM)29.74 "Hg (Oct 1, 6:20 PM)
Average59 °F78%30.09 "Hg
* Reported Sep 16 11:20 PM — Oct 1 11:20 PM, Burgdorf, Weather by CustomWeather, © 2016

Note: Actual official high and low records may vary slightly from our data, if they occured in-between our weather recording intervals... More about our weather records

Advertising

Burgdorf Weather History for the Previous 24 Hours

Scroll right to see more
 ConditionsComfort  
Time TempWeatherWind HumidityBarometerVisibility
11:20 PM
Sat, Oct 1
50 °FCool.No wind100%29.77 "Hg0 mi
10:20 PM54 °FCool.3 mph94%29.77 "Hg0 mi
9:20 PM55 °FCool.2 mph94%29.77 "Hg5 mi
8:20 PM55 °FCool.1 mph94%29.77 "Hg5 mi
7:20 PM55 °FCool.No wind88%29.77 "HgN/A
6:20 PM55 °FCool.1 mph88%29.74 "HgN/A
5:20 PM55 °FCool.5 mph88%29.77 "HgN/A
4:20 PM55 °FCool.6 mph88%29.77 "HgN/A
3:20 PM55 °FCool.5 mph88%29.77 "HgN/A
2:20 PM55 °FCool.5 mph94%29.80 "Hg4 mi
1:20 PM55 °FCool.8 mph94%29.80 "Hg3 mi
12:20 PM54 °FCool.3 mph94%29.83 "Hg6 mi
11:20 AM54 °FCool.5 mph94%29.86 "Hg5 mi
10:20 AM54 °FCool.6 mph88%29.86 "Hg6 mi
9:20 AM52 °FCool.3 mph94%29.86 "Hg6 mi
8:20 AM50 °FCool.1 mph100%29.86 "Hg6 mi
7:20 AM48 °FCool.3 mph100%29.86 "Hg6 mi
6:20 AM48 °FCool.3 mph94%29.89 "Hg6 mi
5:20 AM48 °FCool.2 mph94%29.89 "HgN/A
4:20 AM48 °FCool.2 mph87%29.89 "HgN/A
3:20 AM46 °FCool.No wind93%29.92 "HgN/A
2:20 AM46 °FCool.No wind93%29.92 "Hg2 mi
1:20 AM46 °FCool.No wind87%29.92 "Hg1 mi
12:20 AM46 °FCool.No wind93%29.95 "Hg0 mi
Weather by CustomWeather, © 2016

See weather overviewHow to use our weather pages